Regional Weather Roundup
Issued by NWS Upton, NY

Current Version | Previous Version | Graphics & Text | Print | Product List | Glossary Off
Versions: 1 2 3 4 5 6 7 8 9 10 11 12 13 14 15 16 17 18 19 20 21 22 23 24 25 26 27 28 29 30 31 32 33 34 35 36 37 38 39 40 41 42 43 44 45 46 47 48 49 50

000
ASUS41 KOKX 212205
RWROKX

REGIONAL WEATHER ROUNDUP
NATIONAL WEATHER SERVICE NEW YORK NY
600 PM EDT SUN SEP 21 2014

NOTE: "FAIR" INDICATES FEW OR NO CLOUDS BELOW 12,000 FEET WITH NO
SIGNIFICANT WEATHER AND/OR OBSTRUCTIONS TO VISIBILITY.

NYZ071-072-176-178-NJZ106-104-212300-
NEW YORK CITY METRO AREA


CITY           SKY/WX    TMP DP  RH WIND       PRES   REMARKS
CENTRAL PARK   CLOUDY    74  66  76 CALM      29.65F
LAGUARDIA APRT CLOUDY    77  66  68 E6        29.62F
KENNEDY INTL   CLOUDY    74  67  78 E3        29.63F
NEWARK/LIBERTY CLOUDY    75  66  73 S3        29.62F
BRNX BOT. GARD   N/A     73  66  78 SE3       29.65S
TETERBORO      CLOUDY    76  66  71 SE3       29.61F
$$

NYZ177-179-078>081-212300-
LONG ISLAND NEW YORK

CITY           SKY/WX    TMP DP  RH WIND       PRES   REMARKS
FARMINGDALE    CLOUDY    74  68  81 SW6       29.63F
ISLIP          CLOUDY    73  68  84 S3        29.62F
SHIRLEY        CLOUDY    73  69  87 S6        29.63F
WESTHAMPTON    CLOUDY    72  69  90 S5        29.64F
MONTAUK POINT    N/A     70  67  90 CALM      29.64F
$$

NYZ052-065-067-212300-
HUDSON VALLEY

CITY           SKY/WX    TMP DP  RH WIND       PRES   REMARKS
WHITE PLAINS   CLOUDY    72  68  87 SE3       29.63F
NEWBURGH       MOCLDY    77  68  73 SE14      29.64F
MONTGOMERY     MOCLDY    77  65  66 S8        29.61F
POUGHKEEPSIE   CLOUDY    75  66  73 SE5       29.60F
ALBANY         MOCLDY    78  64  61 S13G20    29.59F
$$

NJZ001-105-106-008-010-013-015-019>022-104-212300-
NEW JERSEY

CITY           SKY/WX    TMP DP  RH WIND       PRES   REMARKS
NEWARK/LIBERTY CLOUDY    75  66  73 S3        29.62F
TETERBORO      CLOUDY    76  66  71 SE3       29.61F
CALDWELL       CLOUDY    75  65  70 W3        29.64F
MORRISTOWN     MOCLDY    77  68  73 CALM      29.63F
SOMERVILLE     PTSUNNY   77  66  68 CALM      29.61F
LINDEN         FAIR      78  70  75 S5        29.64F
SUSSEX         MOCLDY    78  59  51 SW5       29.62F
ANDOVER          N/A     75  61  61 VRB5      29.64F
TRENTON        PTSUNNY   76  65  68 S6        29.63F
MILLVILLE      CLOUDY    77  67  71 CALM      29.64F
ATLANTIC CITY  PTSUNNY   73  70  90 E5        29.63F
WRIGHTSTOWN    CLOUDY    73  69  87 SW2       29.62F
TOMS RIVER     CLOUDY    73  68  83 CALM      29.63F
BELMAR         CLOUDY    73  66  78 E5        29.64F
$$

PAZ047>061-062-071-212300-
EASTERN PENNSYLVANIA

CITY           SKY/WX    TMP DP  RH WIND       PRES   REMARKS
PHILADELPHIA   PTSUNNY   77  65  66 S5        29.64F
ALLENTOWN      PTSUNNY   78  58  49 SW6       29.63F
SCRANTON       MOSUNNY   78  58  49 SW10G20   29.61F
$$

CTZ002-004>006-009-010-012-RIZ004-006-007-MAZ004-011-015-212300-
SOUTHERN NEW ENGLAND
 IN CT

CITY           SKY/WX    TMP DP  RH WIND       PRES   REMARKS
BRADLEY INTL   CLOUDY    75  68  78 S7        29.62F
HARTFORD       CLOUDY    73  70  90 S5        29.62F
DANBURY        CLOUDY    72  68  87 CALM      29.65F
WTRBRY/OXFORD  PTCLDY    72  66  83 S5        29.66F
BRIDGEPORT     CLOUDY    74  70  87 CALM      29.63F
MERIDEN        CLOUDY    75  68  78 SW3       29.63F
NEW HAVEN      CLOUDY    76  69  79 CALM      29.63F
CHESTER        CLOUDY    72  72 100 SE3       29.66F FOG
GROTON         CLOUDY    70  66  87 S3        29.63F
WILLIMANTIC    CLOUDY    74  69  85 MISG      29.64F

 IN RI

CITY           SKY/WX    TMP DP  RH WIND       PRES   REMARKS
PROVIDENCE     CLOUDY    70  69  97 SE7       29.66F FOG
BLOCK ISLAND   CLOUDY    70  64  83 CALM      29.65F
WESTERLY       CLOUDY    71  66  84 E3        29.65F

 IN MA

CITY           SKY/WX    TMP DP  RH WIND       PRES   REMARKS
BOSTON         CLOUDY    68  65  90 E10       29.65F
WORCESTER      CLOUDY    68  66  93 SW6       29.68F
WESTFIELD      CLOUDY    75  70  84 S7        29.62F
PROVINCETOWN   CLOUDY    70  66  88 SE8       29.67F
NANTUCKET      LGT RAIN  65  64  97 SE8       29.66F FOG
$$

ANZ330-335-338-340-345-350-353-355-212300-
COASTAL MARINE OBSERVATIONS


STATION/POSITION TIME  SKY/WX   TEMP    WIND        PRES    VSBY  WAVE
                                AIR SEA DIR/SP/G                  HT/PER
                 (UTC)          (F)     (DEG/KT/KT) (MB)    (MI)  (FT/S)
NY HARB ENTRANCE 2200            71 72   20/  2/  4 1003.8          4/ 7
4S FIRE IS       2200               71                N/A           4/ 8
20S FIRE ISLAND  2200            70 70   50/  4/  4 1003.5          4/ 8
23SW MTP         2200                                 N/A           5/ 8
HUDSON CANYON    2200            71 71   30/  8/ 10 1002.2          4/ 8
EXECUTION ROCKS  2200            72 71   CALM  /  2   N/A
WESTERN LI SOUND 2200            72     240/  2/  2   N/A           1
CENTRAL LI SOUND 2200            71 71   90/  4/  6   N/A           1
EASTERN LI SOUND 2100            69 69  180/ 10/ 16   N/A
ROBBINS REEF     2200            73     170/  8/  8 1001.8
$$


>>>>>>>>>>>>>>>>>>>>>>>>>>>> KEY <<<<<<<<<<<<<<<<<<<<<<<<<<<
>                                                          <
>     SKY/WX - SKY CONDITION/PRESENT WEATHER               <
>     TMP    - TEMPERATURE IN FAHRENHEIT                   <
>     DP     - DEWPOINT IN FAHRENHEIT                      <
>     RH     - RELATIVE HUMIDITY IN PERCENT                <
>     WIND   - DIRECTION AND SPEED IN MPH                  <
>     PRES   - MEAN SEA LEVEL PRESSURE IN INCHES OF HG     <
>     WCI    - WIND CHILL INDEX                            <
>     VSB    - VISIBILITY IN MILES                         <
>     HX     - HEAT INDEX                                  <
>     TC     - TEMPERATURE IN CELSIUS                      <
>     VRB    - VARIABLE WIND DIRECTION                     <
>                                                          <
>>>>>>>>>>>>>>>>>>>>>>>>>>>> KEY <<<<<<<<<<<<<<<<<<<<<<<<<<<




USA.gov is the U.S. government's official web portal to all federal, state and local government web resources and services.